Cedar Rapids, IA

12:40 AM CDT on May 30, 2017 (GMT -0500)
The Eastern Iowa Airport

Weather History for KCID - November, 2013

Change the Weather History Date:

Tuesday, November 5, 2013

  Actual Average Record
Temperature  
Mean Temperature 52 °F 43 °F  
Max Temperature 56 °F 53 °F 75 °F (1945)
Min Temperature 47 °F 33 °F 6 °F (1951)
Degree Days  
Heating Degree Days 13 22  
Month to date heating degree days 95 106  
Since 1 July heating degree days 622 716  
Cooling Degree Days 0 0  
Month to date cooling degree days 0 0  
Year to date cooling degree days 884 748  
Growing Degree Days 2 (Base 50)    
Moisture  
Dew Point 48 °F    
Average Humidity 88    
Maximum Humidity 96    
Minimum Humidity 80    
Precipitation  
Precipitation 0.56 in 0.08 in 0.71 in (2005)
Month to date precipitation 0.57 0.37  
Year to date precipitation 35.12 31.45  
Sea Level Pressure  
Sea Level Pressure 30.03 in    
Wind  
Wind Speed 10 mph (SE)    
Max Wind Speed 20 mph    
Max Gust Speed 29 mph    
Visibility 5 miles    
Events Rain    
T = Trace of Precipitation, MM = Missing Value Source: NWS Daily Summary

Daily Weather History Graph

Daily Weather History Graph

Search for Another Location

Airport or City:

Trip Planner

Search our weather history database for the weather conditions in past years. The results will help you decide how hot, cold, wet, or windy it might be!

Date:

Astronomy

Nov. 05, 2013 Rise Set
Actual Time 6:44 AM CST 4:55 PM CST
Civil Twilight 6:15 AM CST 5:25 PM CST
Nautical Twilight 5:42 AM CST 5:58 PM CST
Astronomical Twilight 5:09 AM CST 6:30 PM CST
Moon 9:01 AM CST (11/5) 6:56 PM CST (11/5)
Length of Visible Light 11h 09m
Length of Day
10h 11m
Waxing Crescent, 7% of the Moon is Illuminated
Nov 5
Waxing Crescent
Nov 9
First Quarter
Nov 17
Full
Nov 25
Last Quarter
Dec 2
New

Hourly Weather History & Observations

Time (CST) Temp. Dew Point Humidity Pressure Visibility Wind Dir Wind Speed Gust Speed Precip Events Conditions
12:52 AM 48.0 °F 44.1 °F 86% 30.16 in 10.0 mi Calm Calm - N/A   Overcast
1:52 AM 48.0 °F 44.1 °F 86% 30.17 in 9.0 mi NNW 6.9 mph - N/A   Overcast
2:52 AM 48.0 °F 43.0 °F 83% 30.17 in 9.0 mi North 8.1 mph - N/A   Overcast
3:52 AM 48.0 °F 43.0 °F 83% 30.17 in 9.0 mi NE 4.6 mph - N/A   Overcast
4:52 AM 48.0 °F 43.0 °F 83% 30.18 in 8.0 mi NE 8.1 mph - N/A   Overcast
5:52 AM 48.0 °F 44.1 °F 86% 30.17 in 7.0 mi ENE 4.6 mph - N/A   Overcast
6:52 AM 48.0 °F 44.1 °F 86% 30.18 in 6.0 mi ENE 10.4 mph - N/A   Overcast
7:52 AM 48.0 °F 44.1 °F 86% 30.19 in 5.0 mi SE 4.6 mph - N/A   Overcast
8:52 AM 48.9 °F 45.0 °F 86% 30.17 in 6.0 mi ENE 6.9 mph - 0.00 in Rain Light Rain
9:52 AM 50.0 °F 46.0 °F 86% 30.16 in 7.0 mi ESE 6.9 mph - 0.00 in   Overcast
10:52 AM 51.1 °F 46.0 °F 83% 30.15 in 9.0 mi ESE 8.1 mph - N/A   Overcast
11:14 AM 51.8 °F 46.4 °F 82% 30.13 in 9.0 mi SE 8.1 mph - N/A   Overcast
11:30 AM 51.8 °F 48.2 °F 88% 30.12 in 1.8 mi SE 8.1 mph - 0.00 in Rain Light Rain
11:45 AM 51.8 °F 48.2 °F 88% 30.09 in 2.0 mi ESE 10.4 mph - 0.00 in   Overcast
11:52 AM 51.1 °F 48.9 °F 92% 30.10 in 2.0 mi ESE 9.2 mph - 0.00 in   Overcast
12:49 PM 51.8 °F 48.2 °F 88% 30.05 in 1.8 mi ESE 10.4 mph - 0.02 in Rain Rain
12:52 PM 51.1 °F 48.9 °F 92% 30.06 in 1.8 mi ESE 9.2 mph - 0.02 in Rain Rain
1:49 PM 51.8 °F 50.0 °F 94% 30.00 in 3.0 mi SE 11.5 mph - 0.04 in Rain Light Rain
1:52 PM 52.0 °F 50.0 °F 93% 30.01 in 3.0 mi SE 11.5 mph - 0.04 in Rain Light Rain
2:25 PM 51.8 °F 50.0 °F 94% 29.98 in 2.0 mi SE 10.4 mph - 0.02 in Rain Light Rain
2:52 PM 52.0 °F 50.0 °F 93% 29.99 in 1.8 mi SSE 10.4 mph - 0.12 in Rain Rain
3:52 PM 53.1 °F 51.1 °F 93% 29.94 in 2.5 mi SE 10.4 mph - 0.12 in Rain Light Rain
4:22 PM 53.6 °F 51.8 °F 94% 29.92 in 1.5 mi SSE 15.0 mph 21.9 mph 0.05 in Rain Rain
4:25 PM 53.6 °F 51.8 °F 94% 29.92 in 2.5 mi SSE 12.7 mph 21.9 mph 0.05 in Rain Light Rain
4:52 PM 54.0 °F 52.0 °F 93% 29.91 in 3.0 mi SSE 13.8 mph 23.0 mph 0.06 in Rain Light Rain
5:52 PM 54.0 °F 52.0 °F 93% 29.90 in 3.0 mi South 17.3 mph 23.0 mph 0.05 in Rain Rain
6:52 PM 54.0 °F 52.0 °F 93% 29.89 in 6.0 mi South 13.8 mph 25.3 mph 0.04 in Rain Light Rain
7:52 PM 54.0 °F 52.0 °F 93% 29.87 in 4.0 mi South 17.3 mph 24.2 mph 0.07 in Rain Light Rain
8:52 PM 54.0 °F 53.6 °F 99% 29.85 in 6.0 mi South 16.1 mph 27.6 mph 0.01 in   Overcast
9:52 PM 54.0 °F 53.6 °F 99% 29.84 in 4.0 mi South 17.3 mph 24.2 mph 0.02 in Rain Light Rain
10:52 PM 55.0 °F - N/A% 29.83 in 8.0 mi South 13.8 mph 23.0 mph 0.01 in   Overcast
11:52 PM 55.9 °F - N/A% 29.81 in 9.0 mi South 15.0 mph - N/A   Overcast